www.pogodaiklimat.ru

Погода и климат >> Архив погоды >> Иран >> Masjed-Soleyman


ПОГОДА в Masjed-Soleyman

  • Прогноз погоды в Masjed-Soleyman
  • Монитор погоды в Masjed-Soleyman
  • Климат города

АРХИВ ПОГОДЫ в Masjed-Soleyman

Время (UTC), дата Ветер
(напр.,м/с)
 
Видим.   Явления Облачность Т
(С)
Тd
(С)
f
(%)
Тe
(С)
Тes
(С)
Комфортность P
(гПа)
Po
(гПа)
Тmin
(С)
Tmax
(С)
R
(мм)
R24
(мм)
S
(см)
18 11.10 ЮВ 1 10 км ясно +30.2 +8.0 25 +29 +29 жарко 1009.4 974.2
21 11.10 ЮВ 2 10 км ясно +28.2 +8.2 28 +28 +28 жарко 1009.4 974.2
00 12.10 ЮВ 1 10 км ясно +26.2 +5.2 26 +25 +25 комфорт 1009.6 974.4
03 12.10 С 2 10 км ясно +25.2 +6.5 30 +25 +25 комфорт 1010.9 975.4 +24.4
06 12.10 С 3 10 км ясно +30.2 +9.2 27 +30 +35 жарко 1011.8 976.3
09 12.10 С 3 10 км ясно +37.1 +6.6 15 +35 +45 очень
жарко
1010.4 975.2
12 12.10 З 4 10 км 3/0
[Ci fib]
+38.2 +4.8 13 +35 +38 очень
жарко
1009.2 973.9
15 12.10 СЗ 2 10 км ясно +34.7 +3.3 14 +32 +32 жарко 1009.5 974.0 +38.8
18 12.10 З 1 10 км ясно +29.8 +5.3 21 +28 +28 жарко 1010.6 975.1
21 12.10 ЮВ 1 10 км ясно +27.3 +6.2 26 +27 +27 жарко 1010.5 975.0
00 13.10 ЮЗ 1 10 км ясно +25.4 +5.5 28 +25 +25 комфорт 1010.5 975.2
03 13.10 З 1 10 км 4/0
[Ac As]
+23.3 +4.3 29 +23 +23 комфорт 1012.1 976.4 +23.3
06 13.10 ЮВ 3 10 км 4/0
[Ac trans]
+29.7 +5.2 21 +28 +32 жарко 1013.4 977.7
09 13.10 З 1 10 км ясно +37.0 +5.4 14 +34 +49 очень
жарко
1012.3 976.9
12 13.10 З 5 10 км ясно +36.8 +10.5 20 +36 +38 очень
жарко
1010.7 975.3
15 13.10 З 3 10 км ясно +33.8 +10.9 25 +33 +33 жарко 1010.9 975.3 +38.0
18 13.10 З 1 10 км ясно +29.8 +9.0 27 +29 +29 жарко 1011.8 976.2
21 13.10 ЮВ 2 10 км ясно +27.8 +10.4 34 +28 +28 жарко 1011.6 976.4
00 14.10 ЮВ 2 10 км ясно +26.5 +10.9 38 +27 +27 жарко 1011.7 976.4
03 14.10 ЮВ 1 10 км ясно +25.4 +14.5 51 +28 +28 жарко 1013.5 978.0 +25.3
06 14.10 В 1 4000 м мгла ясно +30.4 +20.4 55 +37 +45 очень
душно
1014.6 979.1
09 14.10 ЮЗ 3 6000 м мгла ясно +33.9 +16.9 36 +37 +47 очень
душно
1012.7 977.4
12 14.10 З 4 10 км 5/3 1200 м
[Cu med, cong Ci fib]
+34.6 +16.0 33 +37 +39 очень
душно
1010.7 975.4
15 14.10 СВ 6 10 км 8/4 900 м
[Cb calv Ci sp]
+31.4 +4.9 19 +29 +29 жарко 1012.3 976.6 +35.3
18 14.10 В 3 10 км 9/8 1050 м
[Cb calv As trans]
+30.0 +5.5 21 +28 +28 жарко 1014.3 978.7
21 14.10 В 7 10 км 10/9 1050 м
[Cb calv As op]
+30.1 +5.2 21 +28 +28 жарко 1011.8 976.5
00 15.10 В 2 10 км 4/4 1200 м
[Sc diur, vesp]
+28.3 +6.3 25 +27 +27 жарко 1011.0 975.7
03 15.10 С 6 8000 м слабый дождь 10/9 900 м
[Cb calv As op]
+26.8 +10.6 36 +28 +28 жарко 1015.5 979.7 +26.7
06 15.10 ЮЗ 2 9000 м слабый дождь 10/5 1050 м
[Cb cap As op]
+21.6 +16.4 72 +25 +26 комфорт 1018.4 982.2 0.3
09 15.10 В 3 10 км 10/3 1200 м
[Sc Ac As]
+29.1 +10.1 31 +29 +31 жарко 1014.5 978.8
12 15.10 СВ 1 10 км 3/0
[Ci fib]
+32.6 +7.7 21 +31 +36 жарко 1012.3 976.8 0.0
15 15.10 СЗ 1 10 км 5/0
[Ci fib]
+28.9 +7.4 26 +28 +28 жарко 1012.5 976.6 +33.0
18 15.10 С 2 10 км ясно +26.4 +6.9 29 +26 +26 жарко 1014.2 977.8
21 15.10 СЗ 1 10 км ясно +23.4 +7.6 36 +24 +24 комфорт 1013.1 977.2
00 16.10 С 1 10 км ясно +22.4 +7.8 39 +23 +23 комфорт 1012.0 976.2
03 16.10 С 1 10 км ясно +21.2 +8.5 44 +22 +22 комфорт 1013.9 977.7 +20.8
06 16.10 В 1 10 км ясно +29.6 +9.4 28 +29 +37 жарко 1014.4 978.6
09 16.10 З 2 10 км ясно +34.2 +2.4 13 +31 +43 жарко 1012.6 976.9
12 16.10 З 3 10 км 3/0
[Ci fib]
+34.7 +5.4 16 +32 +36 жарко 1011.1 975.4
15 16.10 СЗ 2 10 км 5/0
[Ci fib]
+31.2 +6.2 21 +30 +30 жарко 1011.9 975.9 +36.2
18 16.10 З 2 10 км ясно +27.9 +6.7 26 +27 +27 жарко 1011.7 976.1
21 16.10 ЮЗ 1 10 км ясно +25.3 +6.3 30 +25 +25 комфорт 1010.8 975.4
00 17.10 штиль 0 10 км ясно +22.6 +6.5 35 +23 +23 комфорт 1010.4 974.7
03 17.10 штиль 0 10 км ясно +22.2 +4.9 32 +22 +22 комфорт 1011.5 975.5 +22.0
06 17.10 СЗ 1 10 км ясно +28.2 +5.8 24 +27 +34 жарко 1012.6 976.8
09 17.10 ЮВ 2 10 км 4/0
[Ci fib]
+34.9 +3.5 14 +32 +43 жарко 1011.4 975.8
12 17.10 З 2 10 км ясно +34.4 +4.1 15 +32 +36 жарко 1009.9 974.3
15 17.10 З 1 10 км ясно +31.3 +4.8 19 +29 +29 жарко 1010.0 974.1 +35.7
18 17.10 З 1 10 км ясно +27.8 +3.6 21 +26 +26 жарко 1010.6 974.8
21 17.10 ЮВ 2 10 км ясно +25.8 +5.4 27 +25 +25 комфорт 1010.3 974.6
00 18.10 С 1 8000 м мгла 4/0
[Ci fib]
+23.1 +4.8 30 +23 +23 комфорт 1010.1 974.4
03 18.10 ЮВ 3 8000 м мгла 1/0
[Ac trans]
+23.7 +3.7 27 +23 +23 комфорт 1011.1 975.2 +23.1
06 18.10 ЮВ 3 10 км ясно +28.6 +10.7 33 +29 +34 жарко 1012.8 977.1
09 18.10 ЮВ 4 10 км 5/0
[Ci fib]
+32.7 +13.2 31 +34 +41 очень
жарко
1011.9 976.3
12 18.10 З 3 10 км 3/3 1200 м
[Cu med, cong]
+33.8 +10.9 25 +33 +36 жарко 1009.3 973.7

 

Местоположение метеостанции Masjed-Soleyman (Иран): широта 31.98 долгота 49.27 высота над уровнем моря 320 м.

В архиве по умолчанию представлена погода в Masjed-Soleyman за последнюю неделю. Архивные данные за месяц целиком и за предыдущие месяцы, начиная с января 2011 года, Вы можете получить, выбрав интересующий диапазон дат из раскрывающегося списка и нажав кнопку "Ввод!".


*Определитесь, кто Вы:
робот инопланетянин человек

Внимание! Время в таблицах - всемирное. Для получения местного времени необходимо прибавить поправку, которая в Masjed-Soleyman равна 3.5 ч.

Смотрите также архив погоды в соседних городах и на ближайших метеорологических станциях:

Погода в Safi-Abad Dezful (Иран) (86 км)
Погода в Ahwaz (Иран) (92 км)
Погода в Omidieh (Иран) (140 км)
Погода в Shahre-Kord (Иран) (153 км)
Погода в Ali-Goodarz (Иран) (163 км)
Погода в Khorram Abad (Иран) (187 км)
Погода в Amarah (Ирак) (199 км)
Погода в Abadan (Иран) (204 км)
Погода в Basrah (Ирак) (211 км)
Погода в Basrah Airport (Ирак) (216 км)

Пояснения к столбцам:

Ветер - указаны скорость ветра в м/с - средняя за 10 мин, порывы в срок и между сроками (в фигурных скобках) и направление, откуда дует ветер: С - северный, СВ - северо-восточный, В - восточный, ЮВ - юго-восточный, Ю - южный, ЮЗ - юго-западный, З - западный, СЗ - северо-западный.
Видимость - горизонтальная дальность видимости в метрах или километрах. При видимости от 1 до 10 км при отсутствии осадков обычно наблюдается дымка, при ухудшении видимости до 1 км и менее - туман. В сухую погоду видимость может ухудшаться дымом, пылью или мглою.
Явления - указаны атмосферные явления, наблюдавшиеся в срок или в последний час перед сроком; фигурными скобками обозначены явления, наблюдавшиеся между сроками (за 1-3 часа до срока); квадратными скобками обозначены град или гололедные отложения с указанием их диаметра в мм.
Облачность - указаны через наклонную черту общая и нижняя облачность в баллах и высота нижней границы облаков в метрах; квадратными скобками обозначены формы облаков: Ci - перистые, Cs - перисто-слоистые, Cc - перисто-кучевые, Ac - высококучевые, As - высокослоистые, Sc - слоисто-кучевые, Ns - слоисто-дождевые, Cu - кучевые, Cb - кучево-дождевые. Подробнее классификацию облаков см. в Атласе облаков (PDF).
T - Температура воздуха - температура, измеренная на высоте 2 м над землей.
Td - Температура точки росы - температура, при понижении до которой содержащийся в воздухе водяной пар достигнет насыщения.
f - Относительная влажность воздуха - влажноcть воздуха, измеренная на высоте 2 м над землей.
Te - Эффективная температура - температура, которую ощущает одетый по сезону человек в тени. Характеристика душности погоды. При расчете учитывается влияние влажности воздуха и скорости ветра на теплоощущения человека.
Tes - Эффективная температура на солнце - температура, которую ощущает человек, с поправкой на солнечный нагрев. Характеристика знойности погоды. Зависит от высоты солнца над горизонтом, облачности и скорости ветра. Ночью, в пасмурную погоду, а также при ветре 12 м/с и более поправка равна нулю.
P - Атмосферное давление - приведенное к уровню моря атмосферное давление.
Po - Атмосферное давление - измеренное на уровне метеостанции атмосферное давление.
Tmin - Минимальная температура - минимум температуры воздуха на высоте 2 м над землей.
Tmax - Максимальная температура - максимум температуры воздуха на высоте 2 м над землей.
R - Количество осадков - Количество выпавших осадков за период времени, мм. При наведении курсора мыши на число - период времени, за который выпало указанное количество осадков.
R24 - Количество осадков - Количество выпавших осадков за 24 часа, мм.
S - Снежный покров - Высота снежного покрова, см. При наведении курсора мыши на число - состояние снежного покрова и степень покрытия местности в баллах.